Weather Service Report


131 
ASUS43 KTOP 070508
RWRKS 

WEATHER ROUNDUP FOR KANSAS
NATIONAL WEATHER SERVICE GOODLAND KS
1100 PM CST FRI MAR 06 2015

NOTE:  "FAIR" INDICATES FEW OR NO CLOUDS BELOW 12,000 FEET WITH NO
SIGNIFICANT WEATHER AND/OR OBSTRUCTIONS TO VISIBILITY.

KSZ001>006-013>018-027>032-041>047-070600-
NORTHWEST KANSAS
  
CITY           SKY/WX    TMP DP  RH WIND       PRES   REMARKS
GOODLAND       CLEAR     35  24  64 W10       30.27R WCI  27          
HAYS           CLEAR     41  18  38 W8        30.22S                  
HILL CITY      CLEAR     37  18  46 W10       30.21S WCI  30          
RUSSELL        CLEAR     40  20  44 SW10      30.20R WCI  33          
$$

KSZ061>065-074>080-084>089-070600-
SOUTHWEST KANSAS
  
CITY           SKY/WX    TMP DP  RH WIND       PRES   REMARKS
DODGE CITY     CLEAR     40  19  43 S7        30.27R                  
ELKHART          N/A     46  26  45 S10         N/A                   
GARDEN CITY    CLEAR     38  22  52 S8        30.26R                  
GREAT BEND     CLEAR     39  18  41 SW13      30.23S WCI  32          
LIBERAL        FAIR      39  25  56 S9        30.28S                  
PRATT          CLEAR     39  30  70 SW12      30.28R WCI  32          
$$

KSZ066>073-081>083-090>101-070600-
SOUTHEAST KANSAS
  
CITY           SKY/WX    TMP DP  RH WIND       PRES   REMARKS
CHANUTE        CLEAR     41  27  57 S12       30.30S                  
COFFEYVILLE    CLEAR     41  27  57 S13       30.34S                  
HUTCHINSON     CLEAR     41  29  62 S6        30.26R                  
MEDICINE LODGE   N/A     42  31  64 SE6       30.28S                  
NEWTON         CLEAR     45  27  49 SW15      30.27S                  
PARSONS        CLEAR     39  28  64 S7        30.33S                  
WICHITA INTL   CLEAR     43  30  60 S12       30.27S                  
WICHITA JABRA  CLEAR     46  29  51 S16G24    30.27S                  
WICHITA MCCONL CLEAR     44  30  58 S13       30.28S                  
WINFIELD       CLEAR     43  29  57 S13       30.32S                  
$$

KSZ007>012-019>026-033>040-048>060-102>105-070600-
NORTHEAST KANSAS
  
CITY           SKY/WX    TMP DP  RH WIND       PRES   REMARKS
CONCORDIA      CLEAR     47  19  33 SW14      30.16S                  
EMPORIA        CLEAR     45  29  53 SW21G30   30.23F                  
LAWRENCE       CLEAR     46  28  49 SW16      30.22S                  
MANHATTAN      CLEAR     43  29  57 SW13      30.19F                  
MARYSVILLE     CLEAR     41  23  48 S9        30.15S                  
OLATHE IND     CLEAR     44  28  53 S17       30.24S                  
OLATHE EXE     CLEAR     42  27  55 S7        30.23S                  
SALINA         CLEAR     43  28  55 S12       30.21S                  
TOPEKA BILLARD CLEAR     47  27  45 SW12      30.22S                  
TOPEKA FORBES  CLEAR     43  28  55 SW12      30.21F                  
$$

Return to Home page


Western Regional Climate Center, wrcc@dri.edu